Time,TemperatureF,DewpointF,PressureIn,WindDirection,WindDirectionDegrees,WindSpeedMPH,WindSpeedGustMPH,Humidity,HourlyPrecipIn,Conditions,Clouds,dailyrainin,SoftwareType,DateUTC
2013-05-19 00:00:00,66.9,61.2,30.03,SE,124,2.0,3.0,82,0.00,,CLR,0.00,VWS V14.01,2013-05-19 04:00:00,
2013-05-19 00:01:00,66.9,61.2,30.03,East,89,3.0,4.0,82,0.00,,CLR,0.00,VWS V14.01,2013-05-19 04:01:00,
2013-05-19 00:06:00,66.7,61.4,30.03,ESE,120,2.0,3.0,83,0.00,,CLR,0.00,VWS V14.01,2013-05-19 04:06:00,
2013-05-19 00:11:00,66.5,61.2,30.03,ESE,107,2.0,3.0,83,0.00,,CLR,0.00,VWS V14.01,2013-05-19 04:11:00,
2013-05-19 00:16:00,66.4,61.4,30.03,ESE,107,2.0,4.0,84,0.00,,CLR,0.00,VWS V14.01,2013-05-19 04:16:00,
2013-05-19 00:21:00,66.3,61.3,30.03,ESE,115,3.0,4.0,84,0.00,,CLR,0.00,VWS V14.01,2013-05-19 04:21:00,
2013-05-19 00:26:00,66.2,61.2,30.03,East,84,2.0,3.0,84,0.00,,CLR,0.00,VWS V14.01,2013-05-19 04:26:00,
2013-05-19 00:31:00,66.0,61.0,30.03,East,96,2.0,4.0,84,0.00,,CLR,0.00,VWS V14.01,2013-05-19 04:31:00,
2013-05-19 00:36:00,65.9,61.3,30.03,East,86,2.0,2.0,85,0.00,,CLR,0.00,VWS V14.01,2013-05-19 04:36:00,
2013-05-19 00:41:00,65.8,61.2,30.03,East,96,2.0,2.0,85,0.00,,CLR,0.00,VWS V14.01,2013-05-19 04:41:00,
2013-05-19 00:46:00,65.8,61.2,30.03,East,82,2.0,4.0,85,0.00,,CLR,0.00,VWS V14.01,2013-05-19 04:46:00,
2013-05-19 00:51:00,65.8,61.2,30.03,East,86,2.0,4.0,85,0.00,,CLR,0.00,VWS V14.01,2013-05-19 04:51:00,
2013-05-19 00:56:00,65.8,61.2,30.03,ESE,110,5.0,6.0,85,0.00,,CLR,0.00,VWS V14.01,2013-05-19 04:56:00,
2013-05-19 01:01:00,65.8,61.2,30.03,ESE,114,5.0,5.0,85,0.00,,CLR,0.00,VWS V14.01,2013-05-19 05:01:00,
2013-05-19 01:06:00,65.8,61.5,30.03,SE,127,6.0,6.0,86,0.00,,CLR,0.00,VWS V14.01,2013-05-19 05:06:00,
2013-05-19 01:11:00,65.7,61.4,30.03,East,86,4.0,6.0,86,0.00,,CLR,0.00,VWS V14.01,2013-05-19 05:11:00,
2013-05-19 01:16:00,65.8,61.5,30.03,East,89,3.0,4.0,86,0.00,,CLR,0.00,VWS V14.01,2013-05-19 05:16:00,
2013-05-19 01:21:00,65.7,61.4,30.02,SE,124,3.0,4.0,86,0.00,,CLR,0.00,VWS V14.01,2013-05-19 05:21:00,
2013-05-19 01:26:00,65.6,61.3,30.03,East,84,3.0,3.0,86,0.00,,CLR,0.00,VWS V14.01,2013-05-19 05:26:00,
2013-05-19 01:31:00,65.4,61.1,30.02,ESE,120,2.0,3.0,86,0.00,,CLR,0.00,VWS V14.01,2013-05-19 05:31:00,
2013-05-19 01:36:00,65.2,61.2,30.02,East,91,2.0,2.0,87,0.00,,CLR,0.00,VWS V14.01,2013-05-19 05:36:00,
2013-05-19 01:41:00,65.1,61.1,30.02,ESE,122,2.0,4.0,87,0.00,,CLR,0.00,VWS V14.01,2013-05-19 05:41:00,
2013-05-19 01:46:00,64.9,60.9,30.02,East,96,2.0,4.0,87,0.00,,CLR,0.00,VWS V14.01,2013-05-19 05:46:00,
2013-05-19 01:51:00,64.7,61.1,30.02,ENE,63,4.0,4.0,88,0.00,,CLR,0.00,VWS V14.01,2013-05-19 05:51:00,
2013-05-19 01:56:00,64.6,61.0,30.02,East,79,5.0,5.0,88,0.00,,CLR,0.00,VWS V14.01,2013-05-19 05:56:00,
2013-05-19 02:01:00,64.6,61.0,30.02,East,81,4.0,5.0,88,0.00,,CLR,0.00,VWS V14.01,2013-05-19 06:01:00,
2013-05-19 02:06:00,64.5,60.9,30.01,East,81,3.0,5.0,88,0.00,,CLR,0.00,VWS V14.01,2013-05-19 06:06:00,
2013-05-19 02:11:00,64.4,60.8,30.01,East,97,4.0,6.0,88,0.00,,CLR,0.00,VWS V14.01,2013-05-19 06:11:00,
2013-05-19 02:16:00,64.4,60.8,30.01,East,91,3.0,5.0,88,0.00,,CLR,0.00,VWS V14.01,2013-05-19 06:16:00,
2013-05-19 02:21:00,64.4,60.8,30.01,ENE,77,2.0,8.0,88,0.00,,CLR,0.00,VWS V14.01,2013-05-19 06:21:00,
2013-05-19 02:26:00,64.3,60.7,30.01,East,97,5.0,5.0,88,0.00,,CLR,0.00,VWS V14.01,2013-05-19 06:26:00,
2013-05-19 02:31:00,64.3,61.0,30.01,ENE,69,4.0,6.0,89,0.00,,CLR,0.00,VWS V14.01,2013-05-19 06:31:00,
2013-05-19 02:36:00,64.2,60.9,30.01,ESE,114,5.0,5.0,89,0.00,,CLR,0.00,VWS V14.01,2013-05-19 06:36:00,
2013-05-19 02:41:00,64.2,60.9,30.01,ENE,65,6.0,6.0,89,0.00,,CLR,0.00,VWS V14.01,2013-05-19 06:41:00,
2013-05-19 02:46:00,64.1,60.8,30.01,East,89,4.0,5.0,89,0.00,,CLR,0.00,VWS V14.01,2013-05-19 06:46:00,
2013-05-19 02:51:00,64.0,60.7,30.01,East,90,4.0,5.0,89,0.00,,CLR,0.00,VWS V14.01,2013-05-19 06:51:00,
2013-05-19 02:56:00,64.0,60.7,30.01,East,79,4.0,5.0,89,0.00,,CLR,0.00,VWS V14.01,2013-05-19 06:56:00,
2013-05-19 03:01:00,63.8,60.5,30.01,ENE,58,3.0,5.0,89,0.00,,CLR,0.00,VWS V14.01,2013-05-19 07:01:00,
2013-05-19 03:06:00,63.7,60.7,30.01,ENE,63,5.0,5.0,90,0.00,,CLR,0.00,VWS V14.01,2013-05-19 07:06:00,
2013-05-19 03:11:00,63.6,60.6,30.01,ENE,77,3.0,5.0,90,0.00,,CLR,0.00,VWS V14.01,2013-05-19 07:11:00,
2013-05-19 03:16:00,63.6,60.6,30.01,East,100,3.0,5.0,90,0.00,,CLR,0.00,VWS V14.01,2013-05-19 07:16:00,
2013-05-19 03:21:00,63.5,60.5,30.01,East,79,3.0,6.0,90,0.00,,CLR,0.00,VWS V14.01,2013-05-19 07:21:00,
2013-05-19 03:26:00,63.5,60.5,30.01,East,83,3.0,6.0,90,0.00,,CLR,0.00,VWS V14.01,2013-05-19 07:26:00,
2013-05-19 03:31:00,63.4,60.4,30.01,ESE,105,2.0,3.0,90,0.00,,CLR,0.00,VWS V14.01,2013-05-19 07:31:00,
2013-05-19 03:36:00,63.3,60.3,30.01,ESE,103,3.0,5.0,90,0.00,,CLR,0.00,VWS V14.01,2013-05-19 07:36:00,
2013-05-19 03:41:00,63.4,60.4,30.01,East,98,3.0,5.0,90,0.00,,CLR,0.00,VWS V14.01,2013-05-19 07:41:00,
2013-05-19 03:46:00,63.3,60.3,30.00,East,96,2.0,4.0,90,0.00,,CLR,0.00,VWS V14.01,2013-05-19 07:46:00,
2013-05-19 03:51:00,63.3,60.6,30.00,ESE,108,3.0,8.0,91,0.00,,CLR,0.00,VWS V14.01,2013-05-19 07:51:00,
2013-05-19 03:56:00,63.2,60.5,30.00,ESE,117,4.0,4.0,91,0.00,,CLR,0.00,VWS V14.01,2013-05-19 07:56:00,
2013-05-19 04:01:00,63.0,60.3,30.01,East,81,3.0,4.0,91,0.00,,CLR,0.00,VWS V14.01,2013-05-19 08:01:00,
2013-05-19 04:06:00,62.9,60.2,30.01,East,79,4.0,6.0,91,0.00,,CLR,0.00,VWS V14.01,2013-05-19 08:06:00,
2013-05-19 04:11:00,62.8,60.1,30.01,ESE,111,2.0,7.0,91,0.00,,CLR,0.00,VWS V14.01,2013-05-19 08:11:00,
2013-05-19 04:16:00,62.8,60.5,30.01,ENE,68,2.0,4.0,92,0.00,,CLR,0.00,VWS V14.01,2013-05-19 08:16:00,
2013-05-19 04:21:00,62.8,60.5,30.01,ESE,114,4.0,4.0,92,0.00,,CLR,0.00,VWS V14.01,2013-05-19 08:21:00,
2013-05-19 04:26:00,62.6,60.2,30.02,ESE,102,3.0,4.0,92,0.00,,CLR,0.00,VWS V14.01,2013-05-19 08:26:00,
2013-05-19 04:31:00,62.6,60.2,30.02,ESE,104,2.0,3.0,92,0.00,,CLR,0.00,VWS V14.01,2013-05-19 08:31:00,
2013-05-19 04:36:00,62.5,60.2,30.02,ESE,104,1.0,3.0,92,0.00,,CLR,0.00,VWS V14.01,2013-05-19 08:36:00,
2013-05-19 04:41:00,62.4,60.0,30.02,East,79,1.0,1.0,92,0.00,,CLR,0.00,VWS V14.01,2013-05-19 08:41:00,
2013-05-19 04:46:00,62.4,60.3,30.02,ENE,71,2.0,2.0,93,0.00,,CLR,0.00,VWS V14.01,2013-05-19 08:46:00,
2013-05-19 04:51:00,62.3,60.2,30.02,East,91,1.0,2.0,93,0.00,,CLR,0.00,VWS V14.01,2013-05-19 08:51:00,
2013-05-19 04:56:00,62.2,60.2,30.03,East,86,0.0,0.0,93,0.00,,CLR,0.00,VWS V14.01,2013-05-19 08:56:00,
2013-05-19 05:01:00,62.1,60.1,30.03,ESE,103,2.0,2.0,93,0.00,,CLR,0.00,VWS V14.01,2013-05-19 09:01:00,
2013-05-19 05:06:00,62.1,60.1,30.03,East,82,0.0,1.0,93,0.00,,CLR,0.00,VWS V14.01,2013-05-19 09:06:00,
2013-05-19 05:11:00,62.0,60.0,30.03,East,82,0.0,1.0,93,0.00,,CLR,0.00,VWS V14.01,2013-05-19 09:11:00,
2013-05-19 05:16:00,62.0,60.0,30.03,ENE,65,1.0,1.0,93,0.00,,CLR,0.00,VWS V14.01,2013-05-19 09:16:00,
2013-05-19 05:21:00,62.0,60.0,30.03,ENE,58,0.0,1.0,93,0.00,,CLR,0.00,VWS V14.01,2013-05-19 09:21:00,
2013-05-19 05:26:00,62.0,60.0,30.03,ENE,74,2.0,2.0,93,0.00,,CLR,0.00,VWS V14.01,2013-05-19 09:26:00,
2013-05-19 05:31:00,62.0,60.0,30.03,East,82,2.0,2.0,93,0.00,,SCT047,0.00,VWS V14.01,2013-05-19 09:31:00,
2013-05-19 05:36:00,62.0,60.0,30.03,ESE,108,3.0,3.0,93,0.00,,SCT047,0.00,VWS V14.01,2013-05-19 09:36:00,
2013-05-19 05:41:00,62.0,60.0,30.03,East,98,2.0,2.0,93,0.00,,SCT047,0.00,VWS V14.01,2013-05-19 09:41:00,
2013-05-19 05:46:00,62.0,60.0,30.03,ENE,64,2.0,3.0,93,0.00,,OVC047,0.00,VWS V14.01,2013-05-19 09:46:00,
2013-05-19 05:51:00,62.0,60.3,30.03,East,86,2.0,4.0,94,0.00,,OVC047,0.00,VWS V14.01,2013-05-19 09:51:00,
2013-05-19 05:56:00,62.0,60.3,30.03,ENE,58,3.0,3.0,94,0.00,,OVC047,0.00,VWS V14.01,2013-05-19 09:56:00,
2013-05-19 06:01:00,62.0,60.3,30.04,ENE,77,2.0,2.0,94,0.00,,BKN049,0.00,VWS V14.01,2013-05-19 10:01:00,
2013-05-19 06:06:00,62.0,60.3,30.04,ENE,76,2.0,3.0,94,0.00,,BKN049,0.00,VWS V14.01,2013-05-19 10:06:00,
2013-05-19 06:10:00,62.1,60.4,30.04,NE,45,3.0,4.0,94,0.00,,BKN049,0.00,VWS V14.01,2013-05-19 10:10:00,
2013-05-19 06:15:00,62.2,60.5,30.04,East,90,1.0,3.0,94,0.00,,BKN049,0.00,VWS V14.01,2013-05-19 10:15:00,
2013-05-19 06:20:00,62.2,60.5,30.04,ENE,75,1.0,3.0,94,0.00,,BKN049,0.00,VWS V14.01,2013-05-19 10:20:00,
2013-05-19 06:25:00,62.4,60.7,30.04,ESE,110,3.0,3.0,94,0.00,,BKN049,0.00,VWS V14.01,2013-05-19 10:25:00,
2013-05-19 06:30:00,62.4,60.3,30.05,East,94,1.0,2.0,93,0.00,,SCT049,0.00,VWS V14.01,2013-05-19 10:30:00,
2013-05-19 06:35:00,62.5,60.5,30.05,East,89,2.0,4.0,93,0.00,,SCT049,0.00,VWS V14.01,2013-05-19 10:35:00,
2013-05-19 06:40:00,62.6,60.5,30.05,ESE,111,4.0,4.0,93,0.00,,SCT049,0.00,VWS V14.01,2013-05-19 10:40:00,
2013-05-19 06:45:00,62.7,60.7,30.05,East,82,3.0,4.0,93,0.00,,,0.00,VWS V14.01,2013-05-19 10:45:00,
2013-05-19 06:50:00,62.8,60.8,30.05,East,84,3.0,6.0,93,0.00,,,0.00,VWS V14.01,2013-05-19 10:50:00,
2013-05-19 06:55:00,62.9,60.8,30.04,East,84,6.0,6.0,93,0.00,,,0.00,VWS V14.01,2013-05-19 10:55:00,
2013-05-19 07:00:00,63.0,61.0,30.05,ENE,75,3.0,4.0,93,0.00,,,0.00,VWS V14.01,2013-05-19 11:00:00,
2013-05-19 07:05:00,63.1,61.0,30.05,ENE,74,3.0,3.0,93,0.00,,,0.00,VWS V14.01,2013-05-19 11:05:00,
2013-05-19 07:10:00,63.3,61.2,30.05,East,98,2.0,3.0,93,0.00,,,0.00,VWS V14.01,2013-05-19 11:10:00,
2013-05-19 07:15:00,63.4,61.3,30.05,East,79,3.0,4.0,93,0.00,,,0.00,VWS V14.01,2013-05-19 11:15:00,
2013-05-19 07:20:00,63.5,61.1,30.05,ENE,74,2.0,2.0,92,0.00,,,0.00,VWS V14.01,2013-05-19 11:20:00,
2013-05-19 07:25:00,63.7,61.3,30.05,East,82,2.0,3.0,92,0.00,,,0.00,VWS V14.01,2013-05-19 11:25:00,
2013-05-19 07:30:00,63.8,61.4,30.05,ENE,72,3.0,5.0,92,0.00,,,0.00,VWS V14.01,2013-05-19 11:30:00,
2013-05-19 07:35:00,63.9,61.5,30.05,East,81,4.0,6.0,92,0.00,,,0.00,VWS V14.01,2013-05-19 11:35:00,
2013-05-19 07:40:00,64.1,61.7,30.05,East,81,4.0,6.0,92,0.00,,,0.00,VWS V14.01,2013-05-19 11:40:00,
2013-05-19 07:45:00,64.2,61.5,30.05,East,87,4.0,5.0,91,0.00,,OVC080,0.00,VWS V14.01,2013-05-19 11:45:00,
2013-05-19 07:50:00,64.4,61.7,30.05,ENE,77,3.0,5.0,91,0.00,,OVC080,0.00,VWS V14.01,2013-05-19 11:50:00,
2013-05-19 07:55:00,64.5,61.8,30.05,East,84,3.0,4.0,91,0.00,,OVC080,0.00,VWS V14.01,2013-05-19 11:55:00,
2013-05-19 08:00:00,64.7,62.0,30.05,ESE,109,6.0,7.0,91,0.00,,,0.00,VWS V14.01,2013-05-19 12:00:00,
2013-05-19 08:05:00,64.8,62.1,30.05,East,98,6.0,7.0,91,0.00,,,0.00,VWS V14.01,2013-05-19 12:05:00,
2013-05-19 08:10:00,64.9,61.9,30.05,ESE,106,5.0,8.0,90,0.00,,,0.00,VWS V14.01,2013-05-19 12:10:00,
2013-05-19 08:15:00,65.0,62.0,30.05,East,96,4.0,7.0,90,0.00,,,0.00,VWS V14.01,2013-05-19 12:15:00,
2013-05-19 08:20:00,65.1,62.1,30.05,ENE,71,5.0,7.0,90,0.00,,,0.00,VWS V14.01,2013-05-19 12:20:00,
2013-05-19 08:25:00,65.1,62.1,30.05,ESE,120,3.0,7.0,90,0.00,,,0.00,VWS V14.01,2013-05-19 12:25:00,
2013-05-19 08:30:00,65.3,62.3,30.05,East,100,9.0,9.0,90,0.00,,,0.00,VWS V14.01,2013-05-19 12:30:00,
2013-05-19 08:35:00,65.7,62.4,30.05,SE,125,6.0,8.0,89,0.00,,,0.00,VWS V14.01,2013-05-19 12:35:00,
2013-05-19 08:40:00,66.0,62.3,30.05,East,100,8.0,9.0,88,0.00,,,0.00,VWS V14.01,2013-05-19 12:40:00,
2013-05-19 08:45:00,66.4,62.7,30.05,ESE,112,7.0,8.0,88,0.00,,,0.00,VWS V14.01,2013-05-19 12:45:00,
2013-05-19 08:50:00,66.7,63.0,30.05,East,84,2.0,8.0,88,0.00,,,0.00,VWS V14.01,2013-05-19 12:50:00,
2013-05-19 08:55:00,67.1,63.1,30.05,ESE,121,6.0,7.0,87,0.00,,,0.00,VWS V14.01,2013-05-19 12:55:00,
2013-05-19 09:00:00,67.1,62.8,30.05,ESE,115,5.0,7.0,86,0.00,,,0.00,VWS V14.01,2013-05-19 13:00:00,
2013-05-19 09:05:00,67.3,63.0,30.05,East,84,7.0,8.0,86,0.00,,,0.00,VWS V14.01,2013-05-19 13:05:00,
2013-05-19 09:10:00,68.1,64.1,30.05,SE,136,2.0,4.0,87,0.00,,,0.00,VWS V14.01,2013-05-19 13:10:00,
2013-05-19 09:15:00,68.7,64.3,30.06,ENE,76,5.0,5.0,86,0.00,,,0.00,VWS V14.01,2013-05-19 13:15:00,
2013-05-19 09:20:00,68.7,63.7,30.06,ENE,72,2.0,4.0,84,0.00,,,0.00,VWS V14.01,2013-05-19 13:20:00,
2013-05-19 09:25:00,68.8,63.8,30.05,East,87,1.0,4.0,84,0.00,,,0.00,VWS V14.01,2013-05-19 13:25:00,
2013-05-19 09:30:00,68.7,64.0,30.05,NNE,17,2.0,3.0,85,0.00,,OVC037,0.00,VWS V14.01,2013-05-19 13:30:00,
2013-05-19 09:35:00,69.0,64.0,30.06,SSE,149,0.0,4.0,84,0.00,,OVC037,0.00,VWS V14.01,2013-05-19 13:35:00,
2013-05-19 09:40:00,69.1,64.1,30.05,SE,134,1.0,3.0,84,0.00,,OVC037,0.00,VWS V14.01,2013-05-19 13:40:00,
2013-05-19 09:45:00,69.3,64.3,30.05,ESE,115,2.0,2.0,84,0.00,,OVC039,0.00,VWS V14.01,2013-05-19 13:45:00,
2013-05-19 09:50:00,69.6,64.6,30.05,East,100,3.0,4.0,84,0.00,,OVC039,0.00,VWS V14.01,2013-05-19 13:50:00,
2013-05-19 09:55:00,69.6,64.2,30.05,East,96,6.0,6.0,83,0.00,,OVC039,0.00,VWS V14.01,2013-05-19 13:55:00,
2013-05-19 10:00:00,69.6,64.2,30.05,East,91,3.0,4.0,83,0.00,,OVC042,0.00,VWS V14.01,2013-05-19 14:00:00,
2013-05-19 10:05:00,69.7,64.7,30.05,NE,48,5.0,7.0,84,0.00,,OVC042,0.00,VWS V14.01,2013-05-19 14:05:00,
2013-05-19 10:10:00,70.1,64.7,30.05,SE,141,3.0,6.0,83,0.00,,OVC042,0.00,VWS V14.01,2013-05-19 14:10:00,
2013-05-19 10:15:00,70.3,64.6,30.05,East,101,3.0,6.0,82,0.00,,OVC042,0.00,VWS V14.01,2013-05-19 14:15:00,
2013-05-19 10:20:00,70.4,64.7,30.04,ESE,103,4.0,6.0,82,0.00,,OVC042,0.00,VWS V14.01,2013-05-19 14:20:00,
2013-05-19 10:25:00,70.8,65.4,30.04,East,100,6.0,8.0,83,0.00,,OVC042,0.00,VWS V14.01,2013-05-19 14:25:00,
2013-05-19 10:31:00,70.9,65.1,30.04,ENE,72,6.0,7.0,82,0.00,,,0.00,VWS V14.01,2013-05-19 14:31:00,
2013-05-19 10:36:00,71.0,64.9,30.05,East,84,5.0,7.0,81,0.00,,,0.00,VWS V14.01,2013-05-19 14:36:00,
2013-05-19 10:41:00,71.1,65.0,30.05,ENE,62,4.0,8.0,81,0.00,,,0.00,VWS V14.01,2013-05-19 14:41:00,
2013-05-19 10:46:00,71.3,65.5,30.04,ENE,68,5.0,5.0,82,0.00,,,0.00,VWS V14.01,2013-05-19 14:46:00,
2013-05-19 10:51:00,71.8,65.3,30.04,SE,129,5.0,10.0,80,0.00,,,0.00,VWS V14.01,2013-05-19 14:51:00,
2013-05-19 10:56:00,72.3,65.8,30.04,ESE,110,4.0,5.0,80,0.00,,,0.00,VWS V14.01,2013-05-19 14:56:00,
2013-05-19 11:01:00,73.1,66.9,30.04,NNE,29,0.0,3.0,81,0.00,,,0.00,VWS V14.01,2013-05-19 15:01:00,
2013-05-19 11:06:00,74.0,66.7,30.04,SE,128,1.0,5.0,78,0.00,,,0.00,VWS V14.01,2013-05-19 15:06:00,
2013-05-19 11:11:00,74.1,66.1,30.04,ESE,113,2.0,6.0,76,0.00,,,0.00,VWS V14.01,2013-05-19 15:11:00,
2013-05-19 11:16:00,74.4,66.3,30.04,ESE,103,10.0,12.0,76,0.00,,,0.00,VWS V14.01,2013-05-19 15:16:00,
2013-05-19 11:21:00,74.0,66.0,30.04,East,91,5.0,8.0,76,0.00,,,0.00,VWS V14.01,2013-05-19 15:21:00,
2013-05-19 11:26:00,73.9,66.2,30.03,ESE,119,8.0,10.0,77,0.00,,,0.00,VWS V14.01,2013-05-19 15:26:00,
2013-05-19 11:31:00,74.4,66.7,30.03,ENE,76,5.0,7.0,77,0.00,,,0.00,VWS V14.01,2013-05-19 15:31:00,
2013-05-19 11:36:00,74.9,66.4,30.03,East,97,3.0,9.0,75,0.00,,,0.00,VWS V14.01,2013-05-19 15:36:00,
2013-05-19 11:41:00,75.1,66.2,30.03,ENE,68,4.0,10.0,74,0.00,,,0.00,VWS V14.01,2013-05-19 15:41:00,
2013-05-19 11:46:00,74.5,65.3,30.04,ESE,113,6.0,9.0,73,0.00,,SCT028,0.00,VWS V14.01,2013-05-19 15:46:00,
2013-05-19 11:51:00,74.8,66.3,30.04,ESE,123,2.0,7.0,75,0.00,,SCT028,0.00,VWS V14.01,2013-05-19 15:51:00,
2013-05-19 11:56:00,75.0,65.8,30.04,ESE,120,4.0,7.0,73,0.00,,SCT028,0.00,VWS V14.01,2013-05-19 15:56:00,
2013-05-19 12:01:00,75.3,66.4,30.05,ENE,66,1.0,5.0,74,0.00,,BKN065,0.00,VWS V14.01,2013-05-19 16:01:00,
2013-05-19 12:06:00,75.7,66.0,30.04,ENE,78,6.0,6.0,72,0.00,,BKN065,0.00,VWS V14.01,2013-05-19 16:06:00,
2013-05-19 12:11:00,76.4,66.7,30.04,East,94,6.0,11.0,72,0.00,,BKN065,0.00,VWS V14.01,2013-05-19 16:11:00,
2013-05-19 12:16:00,76.1,66.0,30.04,East,82,8.0,8.0,71,0.00,,BKN065,0.00,VWS V14.01,2013-05-19 16:16:00,
2013-05-19 12:21:00,75.7,66.0,30.03,ENE,61,6.0,6.0,72,0.00,,BKN065,0.00,VWS V14.01,2013-05-19 16:21:00,
2013-05-19 12:26:00,75.5,65.4,30.03,ENE,77,4.0,9.0,71,0.00,,BKN065,0.00,VWS V14.01,2013-05-19 16:26:00,
2013-05-19 12:31:00,75.5,66.2,30.03,ESE,114,8.0,8.0,73,0.00,,OVC065,0.00,VWS V14.01,2013-05-19 16:31:00,
2013-05-19 12:36:00,75.5,66.2,30.03,East,101,6.0,7.0,73,0.00,,OVC065,0.00,VWS V14.01,2013-05-19 16:36:00,
2013-05-19 12:41:00,75.6,65.1,30.03,ESE,120,5.0,6.0,70,0.00,,OVC065,0.00,VWS V14.01,2013-05-19 16:41:00,
2013-05-19 12:46:00,75.7,66.0,30.03,East,87,3.0,3.0,72,0.00,,OVC065,0.00,VWS V14.01,2013-05-19 16:46:00,
2013-05-19 12:51:00,75.6,65.5,30.03,ESE,108,4.0,6.0,71,0.00,,OVC065,0.00,VWS V14.01,2013-05-19 16:51:00,
2013-05-19 12:56:00,76.0,66.7,30.03,South,184,2.0,5.0,73,0.00,,OVC065,0.00,VWS V14.01,2013-05-19 16:56:00,
2013-05-19 13:01:00,77.2,67.5,30.03,ENE,68,2.0,5.0,72,0.00,,OVC048,0.00,VWS V14.01,2013-05-19 17:01:00,
2013-05-19 13:06:00,77.1,66.2,30.02,ESE,107,10.0,13.0,69,0.00,,OVC048,0.00,VWS V14.01,2013-05-19 17:06:00,
2013-05-19 13:11:00,76.9,66.0,30.02,SSE,148,2.0,4.0,69,0.00,,OVC048,0.00,VWS V14.01,2013-05-19 17:11:00,
2013-05-19 13:16:00,77.2,65.8,30.01,East,84,2.0,3.0,68,0.00,,OVC048,0.00,VWS V14.01,2013-05-19 17:16:00,
2013-05-19 13:21:00,77.0,66.1,30.01,ENE,76,8.0,9.0,69,0.00,,OVC048,0.00,VWS V14.01,2013-05-19 17:21:00,
2013-05-19 13:26:00,77.1,66.2,30.01,ESE,109,3.0,7.0,69,0.00,,OVC048,0.00,VWS V14.01,2013-05-19 17:26:00,
2013-05-19 13:31:00,76.6,66.1,30.01,East,95,2.0,6.0,70,0.00,, +RA,0.00,VWS V14.01,2013-05-19 17:31:00,
2013-05-19 13:36:00,76.2,66.1,30.01,SW,230,7.0,11.0,71,0.00,, +RA,0.00,VWS V14.01,2013-05-19 17:36:00,
2013-05-19 13:41:00,74.4,65.6,30.01,South,188,5.0,12.0,74,0.00,, +RA,0.00,VWS V14.01,2013-05-19 17:41:00,
2013-05-19 13:46:00,72.7,64.7,30.02,SSW,205,4.0,10.0,76,0.00,,RA,0.00,VWS V14.01,2013-05-19 17:46:00,
2013-05-19 13:51:00,71.8,64.2,30.02,SW,221,5.0,11.0,77,0.00,,RA,0.00,VWS V14.01,2013-05-19 17:51:00,
2013-05-19 13:56:00,71.3,64.5,30.02,SSW,207,5.0,9.0,79,0.00,,RA,0.00,VWS V14.01,2013-05-19 17:56:00,
2013-05-19 14:01:00,70.9,65.1,30.01,SSW,205,5.0,9.0,82,0.00,,OVC060,0.00,VWS V14.01,2013-05-19 18:01:00,
2013-05-19 14:06:00,70.7,65.3,30.01,South,188,6.0,9.0,83,0.00,,OVC060,0.00,VWS V14.01,2013-05-19 18:06:00,
2013-05-19 14:11:00,70.6,64.5,30.01,SSE,166,7.0,11.0,81,0.00,,OVC060,0.00,VWS V14.01,2013-05-19 18:11:00,
2013-05-19 14:16:00,70.6,64.1,30.01,SSE,162,4.0,8.0,80,0.00,,OVC060,0.00,VWS V14.01,2013-05-19 18:16:00,
2013-05-19 14:21:00,70.7,64.6,30.00,SSE,159,9.0,9.0,81,0.00,,OVC060,0.00,VWS V14.01,2013-05-19 18:21:00,
2013-05-19 14:26:00,70.9,64.4,30.00,South,186,4.0,6.0,80,0.00,,OVC060,0.00,VWS V14.01,2013-05-19 18:26:00,
2013-05-19 14:30:00,71.1,64.6,30.00,ESE,105,4.0,4.0,80,0.00,,,0.00,VWS V14.01,2013-05-19 18:30:00,
2013-05-19 14:35:00,71.2,64.7,30.00,SSE,158,1.0,6.0,80,0.00,,,0.00,VWS V14.01,2013-05-19 18:35:00,
2013-05-19 14:40:00,71.4,64.9,30.00,SE,131,2.0,4.0,80,0.00,,,0.00,VWS V14.01,2013-05-19 18:40:00,
2013-05-19 14:45:00,71.7,64.8,30.00,WSW,248,0.0,1.0,79,0.00,,,0.00,VWS V14.01,2013-05-19 18:45:00,
2013-05-19 14:50:00,72.0,65.1,30.00,SSW,208,2.0,3.0,79,0.00,,,0.00,VWS V14.01,2013-05-19 18:50:00,
2013-05-19 14:55:00,72.0,64.8,30.00,WSW,243,2.0,4.0,78,0.00,,,0.00,VWS V14.01,2013-05-19 18:55:00,
2013-05-19 15:00:00,72.2,64.6,30.00,SW,234,2.0,3.0,77,0.00,,,0.00,VWS V14.01,2013-05-19 19:00:00,
2013-05-19 15:05:00,72.3,65.1,30.00,WSW,248,2.0,2.0,78,0.00,,,0.00,VWS V14.01,2013-05-19 19:05:00,
2013-05-19 15:10:00,72.6,64.6,30.00,SW,232,0.0,1.0,76,0.00,,,0.00,VWS V14.01,2013-05-19 19:10:00,
2013-05-19 15:15:00,73.1,65.1,30.00,SSE,160,0.0,1.0,76,0.00,,,0.00,VWS V14.01,2013-05-19 19:15:00,
2013-05-19 15:20:00,73.7,64.5,30.00,South,169,3.0,3.0,73,0.00,,,0.00,VWS V14.01,2013-05-19 19:20:00,
2013-05-19 15:25:00,74.1,64.5,29.99,SE,146,0.0,0.0,72,0.00,,,0.00,VWS V14.01,2013-05-19 19:25:00,
2013-05-19 15:30:00,75.0,65.4,29.99,ESE,119,0.0,1.0,72,0.00,,,0.00,VWS V14.01,2013-05-19 19:30:00,
2013-05-19 15:35:00,76.4,65.1,29.99,SSW,203,2.0,3.0,68,0.00,,,0.00,VWS V14.01,2013-05-19 19:35:00,
2013-05-19 15:40:00,76.6,64.4,29.99,WSW,253,0.0,1.0,66,0.00,,,0.00,VWS V14.01,2013-05-19 19:40:00,
2013-05-19 15:45:00,77.1,64.9,29.99,NW,321,1.0,1.0,66,0.00,,OVC090,0.00,VWS V14.01,2013-05-19 19:45:00,
2013-05-19 15:50:00,77.2,64.5,29.98,North,9,1.0,1.0,65,0.00,,OVC090,0.00,VWS V14.01,2013-05-19 19:50:00,
2013-05-19 15:55:00,77.0,64.8,29.98,ESE,114,1.0,2.0,66,0.00,,OVC090,0.00,VWS V14.01,2013-05-19 19:55:00,
2013-05-19 16:00:00,77.0,65.2,29.98,ESE,117,1.0,2.0,67,0.00,,OVC090,0.00,VWS V14.01,2013-05-19 20:00:00,
2013-05-19 16:05:00,77.5,65.7,29.98,SE,146,0.0,0.0,67,0.00,,OVC090,0.00,VWS V14.01,2013-05-19 20:05:00,
2013-05-19 16:10:00,78.4,65.2,29.98,WSW,253,0.0,0.0,64,0.00,,OVC090,0.00,VWS V14.01,2013-05-19 20:10:00,
2013-05-19 16:15:00,78.3,65.1,29.98,East,89,3.0,3.0,64,0.00,,OVC090,0.00,VWS V14.01,2013-05-19 20:15:00,
2013-05-19 16:20:00,77.5,64.8,29.98,East,79,3.0,5.0,65,0.00,,OVC090,0.00,VWS V14.01,2013-05-19 20:20:00,
2013-05-19 16:25:00,77.4,64.7,29.98,SSE,152,1.0,2.0,65,0.00,,OVC090,0.00,VWS V14.01,2013-05-19 20:25:00,
2013-05-19 16:30:00,77.3,64.6,29.97,ENE,72,3.0,4.0,65,0.00,,BKN090,0.00,VWS V14.01,2013-05-19 20:30:00,
2013-05-19 16:35:00,77.3,64.6,29.97,East,101,1.0,3.0,65,0.00,,BKN090,0.00,VWS V14.01,2013-05-19 20:35:00,
2013-05-19 16:40:00,77.4,64.7,29.97,SE,126,1.0,2.0,65,0.00,,BKN090,0.00,VWS V14.01,2013-05-19 20:40:00,
2013-05-19 16:45:00,77.8,64.7,29.97,ESE,122,2.0,4.0,64,0.00,,BKN100,0.00,VWS V14.01,2013-05-19 20:45:00,
2013-05-19 16:50:00,77.7,64.1,29.97,ESE,108,6.0,7.0,63,0.00,,BKN100,0.00,VWS V14.01,2013-05-19 20:50:00,
2013-05-19 16:55:00,77.5,64.4,29.97,ESE,117,4.0,5.0,64,0.00,,BKN100,0.00,VWS V14.01,2013-05-19 20:55:00,
2013-05-19 17:00:00,77.3,64.6,29.97,SE,129,6.0,6.0,65,0.00,,BKN100,0.00,VWS V14.01,2013-05-19 21:00:00,
2013-05-19 17:05:00,77.1,64.4,29.97,ESE,105,3.0,4.0,65,0.00,,BKN100,0.00,VWS V14.01,2013-05-19 21:05:00,
2013-05-19 17:10:00,77.1,64.4,29.96,ESE,120,3.0,4.0,65,0.00,,BKN100,0.00,VWS V14.01,2013-05-19 21:10:00,
2013-05-19 17:15:00,77.2,65.0,29.96,SE,127,2.0,4.0,66,0.00,,BKN100,0.00,VWS V14.01,2013-05-19 21:15:00,
2013-05-19 17:20:00,77.2,65.4,29.96,SE,129,3.0,3.0,67,0.00,,BKN100,0.00,VWS V14.01,2013-05-19 21:20:00,
2013-05-19 17:25:00,77.3,65.1,29.96,ENE,68,3.0,6.0,66,0.00,,BKN100,0.00,VWS V14.01,2013-05-19 21:25:00,
2013-05-19 17:30:00,77.4,65.2,29.96,East,88,4.0,4.0,66,0.00,,SCT100,0.00,VWS V14.01,2013-05-19 21:30:00,
2013-05-19 17:35:00,77.4,65.2,29.96,NE,44,1.0,4.0,66,0.00,,SCT100,0.00,VWS V14.01,2013-05-19 21:35:00,
2013-05-19 17:40:00,78.0,65.7,29.96,NNE,20,2.0,5.0,66,0.00,,SCT100,0.00,VWS V14.01,2013-05-19 21:40:00,
2013-05-19 17:45:00,78.4,65.7,29.96,ENE,68,3.0,4.0,65,0.00,,CLR,0.00,VWS V14.01,2013-05-19 21:45:00,
2013-05-19 17:50:00,78.8,65.6,29.96,ENE,68,4.0,4.0,64,0.00,,CLR,0.00,VWS V14.01,2013-05-19 21:50:00,
2013-05-19 17:55:00,79.2,65.5,29.96,NE,39,3.0,4.0,63,0.00,,CLR,0.00,VWS V14.01,2013-05-19 21:55:00,
2013-05-19 18:00:00,79.4,65.7,29.96,ENE,70,6.0,6.0,63,0.00,,SCT120,0.00,VWS V14.01,2013-05-19 22:00:00,
2013-05-19 18:05:00,79.7,65.5,29.95,East,94,3.0,4.0,62,0.00,,SCT120,0.00,VWS V14.01,2013-05-19 22:05:00,
2013-05-19 18:10:00,79.8,66.1,29.95,SE,129,3.0,6.0,63,0.00,,SCT120,0.00,VWS V14.01,2013-05-19 22:10:00,
2013-05-19 18:15:00,79.9,65.7,29.95,East,82,7.0,11.0,62,0.00,,SCT120,0.00,VWS V14.01,2013-05-19 22:15:00,
2013-05-19 18:20:00,79.6,64.5,29.95,ENE,63,7.0,12.0,60,0.00,,SCT120,0.00,VWS V14.01,2013-05-19 22:20:00,
2013-05-19 18:25:00,79.1,64.5,29.95,East,97,5.0,6.0,61,0.00,,SCT120,0.00,VWS V14.01,2013-05-19 22:25:00,
2013-05-19 18:30:00,79.1,64.5,29.95,ENE,58,2.0,6.0,61,0.00,,SCT120,0.00,VWS V14.01,2013-05-19 22:30:00,
2013-05-19 18:35:00,79.3,65.2,29.94,ESE,114,4.0,5.0,62,0.00,,BKN120,0.00,VWS V14.01,2013-05-19 22:35:00,
2013-05-19 18:40:00,79.4,64.8,29.94,SE,125,6.0,8.0,61,0.00,,BKN120,0.00,VWS V14.01,2013-05-19 22:40:00,
2013-05-19 18:45:00,79.2,64.1,29.95,ESE,118,4.0,8.0,60,0.00,,SCT120,0.00,VWS V14.01,2013-05-19 22:45:00,
2013-05-19 18:50:00,79.3,64.7,29.95,ESE,113,3.0,5.0,61,0.00,,SCT120,0.00,VWS V14.01,2013-05-19 22:50:00,
2013-05-19 18:55:00,79.3,64.2,29.95,ESE,113,5.0,5.0,60,0.00,,SCT120,0.00,VWS V14.01,2013-05-19 22:55:00,
2013-05-19 19:00:00,79.2,65.1,29.95,SE,124,2.0,4.0,62,0.00,,SCT120,0.00,VWS V14.01,2013-05-19 23:00:00,
2013-05-19 19:05:00,79.1,65.0,29.95,SE,136,2.0,5.0,62,0.00,,CLR,0.00,VWS V14.01,2013-05-19 23:05:00,
2013-05-19 19:10:00,79.2,65.1,29.95,ESE,117,4.0,4.0,62,0.00,,CLR,0.00,VWS V14.01,2013-05-19 23:10:00,
2013-05-19 19:15:00,79.1,65.0,29.96,SE,124,3.0,4.0,62,0.00,,CLR,0.00,VWS V14.01,2013-05-19 23:15:00,
2013-05-19 19:20:00,79.1,65.0,29.96,ESE,120,2.0,5.0,62,0.00,,CLR,0.00,VWS V14.01,2013-05-19 23:20:00,
2013-05-19 19:25:00,79.2,65.5,29.96,SE,136,4.0,4.0,63,0.00,,CLR,0.00,VWS V14.01,2013-05-19 23:25:00,
2013-05-19 19:30:00,79.1,65.9,29.96,ESE,106,4.0,5.0,64,0.00,,SCT060,0.00,VWS V14.01,2013-05-19 23:30:00,
2013-05-19 19:35:00,79.0,65.8,29.96,ESE,103,4.0,7.0,64,0.00,,SCT060,0.00,VWS V14.01,2013-05-19 23:35:00,
2013-05-19 19:40:00,78.6,66.3,29.96,East,94,2.0,4.0,66,0.00,,SCT060,0.00,VWS V14.01,2013-05-19 23:40:00,
2013-05-19 19:45:00,78.3,66.4,29.96,ESE,115,1.0,2.0,67,0.00,,SCT060,0.00,VWS V14.01,2013-05-19 23:45:00,
2013-05-19 19:50:00,78.2,66.4,29.97,East,89,1.0,3.0,67,0.00,,SCT060,0.00,VWS V14.01,2013-05-19 23:50:00,
2013-05-19 19:55:00,78.3,66.9,29.97,ENE,71,2.0,3.0,68,0.00,,SCT060,0.00,VWS V14.01,2013-05-19 23:55:00,
2013-05-19 20:00:00,78.3,66.4,29.97,East,80,3.0,3.0,67,0.00,,BKN110,0.00,VWS V14.01,2013-05-20 00:00:00,
2013-05-19 20:05:00,78.3,66.9,29.97,ESE,106,2.0,2.0,68,0.00,,BKN110,0.00,VWS V14.01,2013-05-20 00:05:00,
2013-05-19 20:10:00,77.9,66.9,29.96,East,101,3.0,3.0,69,0.00,,BKN110,0.00,VWS V14.01,2013-05-20 00:10:00,
2013-05-19 20:15:00,77.5,66.9,29.97,East,95,3.0,3.0,70,0.00,,BKN110,0.00,VWS V14.01,2013-05-20 00:15:00,
2013-05-19 20:20:00,77.3,66.8,29.97,East,86,2.0,3.0,70,0.00,,BKN110,0.00,VWS V14.01,2013-05-20 00:20:00,
2013-05-19 20:25:00,77.0,66.9,29.97,ENE,74,2.0,2.0,71,0.00,,BKN110,0.00,VWS V14.01,2013-05-20 00:25:00,
2013-05-19 20:30:00,76.9,66.8,29.97,ENE,76,3.0,3.0,71,0.00,,BKN110,0.00,VWS V14.01,2013-05-20 00:30:00,
2013-05-19 20:35:00,76.7,66.6,29.97,East,91,2.0,2.0,71,0.00,,OVC120,0.00,VWS V14.01,2013-05-20 00:35:00,
2013-05-19 20:40:00,76.4,66.3,29.97,East,101,1.0,3.0,71,0.00,,OVC120,0.00,VWS V14.01,2013-05-20 00:40:00,
2013-05-19 20:45:00,76.2,66.5,29.97,East,91,1.0,2.0,72,0.00,,SCT120,0.00,VWS V14.01,2013-05-20 00:45:00,
2013-05-19 20:50:00,76.0,66.3,29.98,ESE,108,1.0,1.0,72,0.00,,SCT120,0.00,VWS V14.01,2013-05-20 00:50:00,
2013-05-19 20:55:00,75.8,66.1,29.98,East,91,1.0,1.0,72,0.00,,SCT120,0.00,VWS V14.01,2013-05-20 00:55:00,
2013-05-19 21:00:00,75.7,66.4,29.98,East,79,0.0,0.0,73,0.00,,SCT120,0.00,VWS V14.01,2013-05-20 01:00:00,
2013-05-19 21:05:00,75.5,66.2,29.98,East,79,0.0,0.0,73,0.00,,SCT065,0.00,VWS V14.01,2013-05-20 01:05:00,
2013-05-19 21:10:00,75.4,66.5,29.97,East,89,1.0,1.0,74,0.00,,SCT065,0.00,VWS V14.01,2013-05-20 01:10:00,
2013-05-19 21:15:00,75.2,66.3,29.97,ESE,120,2.0,2.0,74,0.00,,SCT065,0.00,VWS V14.01,2013-05-20 01:15:00,
2013-05-19 21:20:00,74.9,66.4,29.97,ESE,117,1.0,1.0,75,0.00,,SCT065,0.00,VWS V14.01,2013-05-20 01:20:00,
2013-05-19 21:25:00,74.8,66.3,29.97,East,89,1.0,1.0,75,0.00,,SCT065,0.00,VWS V14.01,2013-05-20 01:25:00,
2013-05-19 21:30:00,74.6,66.5,29.97,East,81,1.0,2.0,76,0.00,,SCT065,0.00,VWS V14.01,2013-05-20 01:30:00,
2013-05-19 21:35:00,74.4,66.3,29.97,ENE,72,2.0,4.0,76,0.00,,SCT065,0.00,VWS V14.01,2013-05-20 01:35:00,
2013-05-19 21:40:00,74.1,66.4,29.97,ENE,74,3.0,4.0,77,0.00,,SCT065,0.00,VWS V14.01,2013-05-20 01:40:00,
2013-05-19 21:45:00,73.8,66.5,29.97,East,84,2.0,4.0,78,0.00,,CLR,0.00,VWS V14.01,2013-05-20 01:45:00,
2013-05-19 21:50:00,73.5,66.2,29.97,ESE,114,2.0,4.0,78,0.00,,CLR,0.00,VWS V14.01,2013-05-20 01:50:00,
2013-05-19 21:55:00,73.2,66.3,29.97,ESE,105,3.0,5.0,79,0.00,,CLR,0.00,VWS V14.01,2013-05-20 01:55:00,
2013-05-19 22:00:00,72.7,66.2,29.97,East,95,3.0,5.0,80,0.00,,CLR,0.00,VWS V14.01,2013-05-20 02:00:00,
2013-05-19 22:05:00,72.5,66.0,29.97,East,84,5.0,5.0,80,0.00,,CLR,0.00,VWS V14.01,2013-05-20 02:05:00,
2013-05-19 22:10:00,72.4,66.2,29.98,ESE,107,4.0,4.0,81,0.00,,CLR,0.00,VWS V14.01,2013-05-20 02:10:00,
2013-05-19 22:15:00,72.3,66.2,29.98,East,86,2.0,4.0,81,0.00,,CLR,0.00,VWS V14.01,2013-05-20 02:15:00,
2013-05-19 22:20:00,72.2,66.1,29.98,ESE,103,2.0,4.0,81,0.00,,CLR,0.00,VWS V14.01,2013-05-20 02:20:00,
2013-05-19 22:25:00,72.2,66.1,29.98,East,97,4.0,4.0,81,0.00,,CLR,0.00,VWS V14.01,2013-05-20 02:25:00,
2013-05-19 22:30:00,72.1,66.3,29.98,East,91,3.0,4.0,82,0.00,,CLR,0.00,VWS V14.01,2013-05-20 02:30:00,
2013-05-19 22:35:00,71.9,66.1,29.98,East,101,5.0,5.0,82,0.00,,CLR,0.00,VWS V14.01,2013-05-20 02:35:00,
2013-05-19 22:40:00,71.8,66.4,29.98,East,87,5.0,5.0,83,0.00,,CLR,0.00,VWS V14.01,2013-05-20 02:40:00,
2013-05-19 22:45:00,71.7,66.3,29.98,East,84,3.0,5.0,83,0.00,,CLR,0.00,VWS V14.01,2013-05-20 02:45:00,
2013-05-19 22:50:00,71.6,66.2,29.98,East,101,3.0,5.0,83,0.00,,CLR,0.00,VWS V14.01,2013-05-20 02:50:00,
2013-05-19 22:55:00,71.4,66.3,29.98,East,98,5.0,5.0,84,0.00,,CLR,0.00,VWS V14.01,2013-05-20 02:55:00,
2013-05-19 23:00:00,71.2,66.1,29.98,ESE,121,4.0,6.0,84,0.00,,CLR,0.00,VWS V14.01,2013-05-20 03:00:00,
2013-05-19 23:05:00,71.2,66.1,29.98,ESE,119,4.0,6.0,84,0.00,,CLR,0.00,VWS V14.01,2013-05-20 03:05:00,
2013-05-19 23:10:00,71.0,66.3,29.98,East,81,2.0,4.0,85,0.00,,CLR,0.00,VWS V14.01,2013-05-20 03:10:00,
2013-05-19 23:15:00,70.8,66.1,29.98,East,98,3.0,4.0,85,0.00,,CLR,0.00,VWS V14.01,2013-05-20 03:15:00,
2013-05-19 23:20:00,70.7,66.3,29.98,East,98,4.0,5.0,86,0.00,,CLR,0.00,VWS V14.01,2013-05-20 03:20:00,
2013-05-19 23:25:00,70.6,66.2,29.98,ESE,116,2.0,5.0,86,0.00,,CLR,0.00,VWS V14.01,2013-05-20 03:25:00,
2013-05-19 23:30:00,70.5,66.1,29.98,ESE,116,3.0,5.0,86,0.00,,CLR,0.00,VWS V14.01,2013-05-20 03:30:00,
2013-05-19 23:35:00,70.2,66.2,29.98,East,98,3.0,4.0,87,0.00,,CLR,0.00,VWS V14.01,2013-05-20 03:35:00,
2013-05-19 23:40:00,70.0,66.0,29.98,East,82,3.0,4.0,87,0.00,,CLR,0.00,VWS V14.01,2013-05-20 03:40:00,
2013-05-19 23:45:00,69.9,65.9,29.98,ESE,108,3.0,4.0,87,0.00,,CLR,0.00,VWS V14.01,2013-05-20 03:45:00,
2013-05-19 23:50:00,69.7,65.7,29.98,ESE,109,4.0,7.0,87,0.00,,CLR,0.00,VWS V14.01,2013-05-20 03:50:00,
2013-05-19 23:55:00,69.6,65.9,29.97,ESE,117,4.0,6.0,88,0.00,,CLR,0.00,VWS V14.01,2013-05-20 03:55:00,